Karlovy Vary, Czech Republic

4:31 AM CEST on April 26, 2018 (GMT +0200)
Karlovy Vary

Weather History for LKKV - March, 2014

Change the Weather History Date:

Tuesday, March 11, 2014

  Actual Average (EDQM) Record (EDQM)
Temperature  
Mean Temperature 42 °F -  
Max Temperature 60 °F 41 °F 60 °F (1997)
Min Temperature 25 °F 30 °F 17 °F (2005)
Degree Days  
Heating Degree Days 22    
Moisture  
Dew Point 26 °F    
Average Humidity 47    
Maximum Humidity 86    
Minimum Humidity 16    
Precipitation  
Precipitation 0.00 in - - ()
Sea Level Pressure  
Sea Level Pressure 30.36 in    
Wind  
Wind Speed 5 mph ()    
Max Wind Speed 12 mph    
Max Gust Speed -    
Visibility 19.0 miles    
Events      
Averages and records for this station are not official NWS values.
T = Trace of Precipitation, MM = Missing Value Source: Averaged Metar Reports

Daily Weather History Graph

Daily Weather History Graph

Search for Another Location

Airport or City:

Astronomy

Mar. 11, 2014 Rise Set
Actual Time 6:31 AM CET 6:06 PM CET
Civil Twilight 5:58 AM CET 6:38 PM CET
Nautical Twilight 5:21 AM CET 7:16 PM CET
Astronomical Twilight 4:42 AM CET 7:55 PM CET
Moon 1:05 PM CET (3/11) 3:36 AM CET (3/11)
Length of Visible Light 12h 39m
Length of Day
11h 35m
Waxing Gibbous, 76% of the Moon is Illuminated
Mar 11
Waxing Gibbous
Mar 16
Full
Mar 24
Last Quarter
Mar 30
New
Apr 7
First Quarter

Hourly Weather History & Observations

Time (CET) Temp. Windchill Dew Point Humidity Pressure Visibility Wind Dir Wind Speed Gust Speed Precip Events Conditions
12:00 AM 35 °F - 26 °F 58%  in 19 mi SE 6.7 mph - -  
12:00 AM 35.6 °F 30.7 °F 26.6 °F 70% 30.27 in - SE 5.8 mph - N/A   Clear
1:00 AM 36 °F - 25 °F 52%  in 19 mi ENE 4.5 mph - -  
1:00 AM 35.6 °F 32.8 °F 24.8 °F 65% 30.27 in - East 3.5 mph - N/A   Clear
2:00 AM 32 °F - 24 °F 63%  in 19 mi SSW 2.2 mph - -  
2:00 AM 32.0 °F - 24.8 °F 75% 30.27 in - Variable 1.2 mph - N/A   Clear
3:00 AM 28 °F - 24 °F 79%  in 19 mi South 2.2 mph - -  
3:00 AM 28.4 °F - 24.8 °F 86% 30.27 in - South 2.3 mph - N/A   Clear
4:00 AM 28 °F - 23 °F 73%  in 19 mi SSW 4.5 mph - -  
4:00 AM 28.4 °F 24.6 °F 23.0 °F 80% 30.27 in - SSW 3.5 mph - N/A   Clear
5:00 AM 28 °F - 24 °F 77%  in 19 mi NNW 2.2 mph - -  
5:00 AM 28.4 °F - 24.8 °F 86% 30.30 in - Variable 2.3 mph - N/A   Clear
6:00 AM 26 °F - 23 °F 85%  in 25 mi SSW 4.5 mph - -   Clear
6:00 AM 26.6 °F 22.6 °F 23.0 °F 86% 30.30 in - SSW 3.5 mph - N/A   Clear
7:00 AM 30 °F - 24 °F 69%  in 31 mi South 2.2 mph - -   Clear
7:00 AM 30.2 °F - 24.8 °F 80% 30.33 in - South 2.3 mph - N/A   Clear
7:30 AM 32.0 °F - 26.6 °F 80% 30.33 in - SW 2.3 mph - N/A   Clear
8:00 AM 37 °F - 29 °F 63%  in 31 mi SW 2.2 mph - -   Clear
8:00 AM 37.4 °F - 28.4 °F 70% 30.33 in - Calm Calm - N/A   Clear
8:30 AM 41.0 °F - 30.2 °F 65% 30.33 in - Calm Calm - N/A   Clear
9:00 AM 44 °F - 29 °F 43%  in 31 mi NNW 4.5 mph - -  
9:00 AM 44.6 °F 43.1 °F 28.4 °F 53% 30.36 in - NNW 3.5 mph - N/A   Clear
9:30 AM 48.2 °F - 26.6 °F 43% 30.36 in - NE 4.6 mph - N/A   Clear
10:00 AM 52 °F - 27 °F 26%  in 31 mi NE 6.7 mph - -  
10:00 AM 51.8 °F - 26.6 °F 38% 30.36 in - ENE 8.1 mph - N/A   Clear
10:30 AM 53.6 °F - 26.6 °F 35% 30.36 in - NE 6.9 mph - N/A   Clear
11:00 AM 53 °F - 27 °F 24%  in 31 mi ENE 8.9 mph - -  
11:00 AM 53.6 °F - 26.6 °F 35% 30.36 in - ENE 6.9 mph - N/A   Clear
11:30 AM 53.6 °F - 26.6 °F 35% 30.39 in - ENE 6.9 mph - N/A   Clear
12:00 PM 56 °F - 28 °F 22%  in 31 mi East 6.7 mph - -  
12:00 PM 55.4 °F - 26.6 °F 33% 30.36 in - East 6.9 mph - N/A   Clear
12:30 PM 57.2 °F - 26.6 °F 31% 30.36 in - East 8.1 mph - N/A   Clear
1:00 PM 58 °F - 24 °F 16%  in 31 mi East 8.9 mph - -  
1:00 PM 57.2 °F - 23.0 °F 27% 30.36 in - East 8.1 mph - N/A   Clear
1:30 PM 59.0 °F - 26.6 °F 29% 30.36 in - ENE 8.1 mph - N/A   Clear
2:00 PM 59 °F - 28 °F 20%  in 22 mi East 8.9 mph - -  
2:00 PM 59.0 °F - 28.4 °F 31% 30.36 in - East 8.1 mph - N/A   Clear
2:30 PM 59.0 °F - 28.4 °F 31% 30.36 in - East 8.1 mph - N/A   Clear
3:00 PM 59 °F - 25 °F 16%  in 19 mi East 11.2 mph - -  
3:00 PM 60.8 °F - 24.8 °F 25% 30.36 in - East 11.5 mph - N/A   Clear
3:30 PM 60.8 °F - 24.8 °F 25% 30.36 in - East 10.4 mph - N/A   Clear
4:00 PM 59 °F - 26 °F 17%  in 19 mi ENE 8.9 mph - -  
4:00 PM 59.0 °F - 24.8 °F 27% 30.36 in - East 9.2 mph - N/A   Clear
4:30 PM 59.0 °F - 24.8 °F 27% 30.36 in - NE 10.4 mph - N/A   Clear
5:00 PM 56 °F - 30 °F 24%  in 19 mi NE 8.9 mph - -  
5:00 PM 57.2 °F - 30.2 °F 36% 30.36 in - NNE 10.4 mph - N/A   Clear
5:30 PM 53.6 °F - 30.2 °F 41% 30.39 in - NNE 6.9 mph - N/A   Clear
6:00 PM 51 °F - 29 °F 30%  in 19 mi NNE 6.7 mph - -  
6:00 PM 51.8 °F - 28.4 °F 41% 30.39 in - NNE 5.8 mph - N/A   Clear
6:30 PM 50.0 °F - 28.4 °F 43% 30.39 in - NNE 3.5 mph - N/A   Clear
7:00 PM 47 °F - 28 °F 35%  in 19 mi NNE 4.5 mph - -  
7:00 PM 46.4 °F - 28.4 °F 50% 30.42 in - Variable 2.3 mph - N/A   Clear
7:30 PM 44.6 °F 43.1 °F 26.6 °F 49% 30.42 in - NE 3.5 mph - N/A   Clear
8:00 PM 45 °F - 28 °F 39%  in 19 mi NE 2.2 mph - -  
8:00 PM 44.6 °F 43.1 °F 28.4 °F 53% 30.42 in - NE 3.5 mph - N/A   Clear
9:00 PM 45 °F - 28 °F 38%  in 19 mi ENE 4.5 mph - -  
9:00 PM 44.6 °F 43.1 °F 28.4 °F 53% 30.45 in - ENE 3.5 mph - N/A   Clear
10:00 PM 41 °F - 26 °F 42%  in 19 mi NE 2.2 mph - -  
10:00 PM 42.8 °F 41.1 °F 26.6 °F 53% 30.45 in - NE 3.5 mph - N/A   Clear
11:00 PM 43 °F - 27 °F 40%  in 19 mi ENE 2.2 mph - -  
11:00 PM 41.0 °F - 26.6 °F 57% 30.45 in - Variable 2.3 mph - N/A   Clear